STARLINK-6127, 57135

Orbit data source: Space-Track

STARLINK-6127, 57135 is a payload satellite owned by SpaceX/Seattle (US) in LEO that was launched on Fri, 23 Jun 2023 UTC via an FALCON 9 launch vehicle from the Air Force Eastern Test Range (AFETR). Payload-class satellites include a variety of spacecraft equipped with specific instruments for various scientific and technological missions. These include communications satellites like Starlink; space stations such as the ISS; scientific satellites like the Hubble; Earth observation satellites from companies like Planet Labs, Umbra, and HawkEye 360; GPS; miniature CubeSats for education and research; and military/defense satellites.

Loading next visibility...
Identifier
57135, 2023-090AL
Orbit
LEO
Last TLE update
1 day ago
Origin
Manufacturer
SpaceX/Seattle
Mission
Operational Commercial Communications
Bus & Motor
STARLINK, Unknown motor
Mass
305 kg wet, ~290 kg dry
Launch date (UTC)
2023-06-23 (2 years ago)
Launch vehicle
FALCON 9
Launch site
Air Force Eastern Test Range (AFETR)
Object type
Payload
Rocket body
Debris
Shape & HBR
Box + 1 Pan, 9 m
Radar Cross Section
11.087 m², Large (>1 m²)

Expand to show TLE details & history

TLE from 1 day ago
0 STARLINK-6127
1 57135U 23090AL  25187.27115333 -.00000431  00000-0 -16866-4 0  9994
2 57135  43.0025 160.7658 0001119 277.8175  82.2540 15.02536920113301
Epoch: 2025-07-06T06:30Z
TLE epoch observation values (Epoch: 2025-07-06T06:30:27.647Z)
Latitude
-0.00005°
Longitude
138.65331°
Altitude
558.75 km
Speed
7.584 km/s
True Right ascension
10h 43m 03s
True Declination
0° 00' 00"
Sunlit
Object was in daylight at epoch
Visualization orbit readout
Latitude
4.29593°
Longitude
136.73722°
Altitude
558.281 km
Speed
7.585 km/s
Apparent Right ascension
10h 52m 49s
Apparent Declination
-16° 48' 26"
Sunlit
Object is in daylight
Visualization observer readout
Local Sidereal Time
23:17:28
Azimuth
14.794° NNE
Elevation
-66.28°
Doppler factor
1
Orbital elements
Apogee altitude
561.777 km
Perigee altitude
560.224 km
Semi-major axis
6,939.137 km
Eccentricity
0.00011
Inclination
43.0025°
RAAN
160.7658°
Arg. of periapsis
277.8175°
True anomaly
Unknown
Mean anomaly
82.254°
Eccentric anomaly
Unknown
Mean motion
3.75478 °/min
Orbital period
95.88 mins
BSTAR
-0.000016866
Loading maneuver chart data...
Loading SW <> Apogee altitude chart data...
Loading historical data...
Loading historical data...
Loading historical data...
Loading historical data...
Loading historical data...
Loading historical data...
Loading historical data...

STARLINK-6127 Visibility forecast

Observer location: undefined°, undefined°

Span
Click to sort rows by Start time (UTC) header in descending order
Start Az.
Max El. time (UTC)
Max El. Az.
Max El.
End time (UTC)
End Az.
5 mins2025-07-08 00:10:13.812Z180.184° SSW2025-07-08 00:12:13.812Z147.739° SSE17.896°2025-07-08 00:15:13.812Z99.627° ESE
6 mins2025-07-08 01:50:13.812Z239.387° WSW2025-07-08 01:52:13.812Z211.959° SW41.995°2025-07-08 01:56:13.812Z74.332° E
6 mins2025-07-08 03:31:13.812Z285.147° WNW2025-07-08 03:33:13.812Z335.509° NNW39.27°2025-07-08 03:37:13.812Z73.806° E
6 mins2025-07-08 05:12:13.812Z293.387° NW2025-07-08 05:14:13.812Z341.148° N43.251°2025-07-08 05:18:13.812Z98.845° ESE
6 mins2025-07-08 06:52:13.812Z270.59° WNW2025-07-08 06:55:13.812Z202.938° SW30.813°2025-07-08 06:58:13.812Z147.274° SSE
|